Location: Berg
(48.5667°N, 13.9833°E)
Time: 05:24:50
(UTC+00:00)

Cosmos 1174 - Pass Details

Date: 09 April 2020
Orbit: 370 x 1148 km, 66.1° (Epoch: 01 June)

Event Time Altitude Azimuth Distance (km) Brightness Sun altitude
Rises 19:54:54 0° 321° (NW) 2,656 8.8 -19.7°
Reaches altitude 10° 19:56:53 10° 318° (NW) 1,862 7.7 -20.0°
Maximum altitude 20:01:02 67° 237° (WSW) 715 4.3 -20.5°
Enters shadow 20:02:37 41° 170° (S) 1,005 4.7 -20.7°
